Regional Weather Roundup
Issued by NWS Cleveland, OH

Home | Current Version | Previous Version | Graphics & Text | Print | Product List | Glossary On
Versions: 1 2 3 4 5 6 7 8 9 10 11 12 13 14 15 16 17 18 19 20 21 22 23 24 25 26 27 28 29 30 31 32 33 34 35 36 37 38 39 40 41 42 43 44 45 46 47 48 49 50
000
ASUS41 KCLE 301600
RWRCLE
OHIO REGIONAL WEATHER ROUNDUP
NATIONAL WEATHER SERVICE WILMINGTON, OH
1200 PM EDT MON MAR 30 2015

NOTE: "FAIR" INDICATES FEW OR NO CLOUDS BELOW 12,000 FEET WITH NO
SIGNIFICANT WEATHER AND/OR OBSTRUCTIONS TO VISIBILITY.

OHZ001>008-015>018-024>027-034-035-043-044-301700-
   NORTHWEST OHIO

CITY           SKY/WX    TMP DP  RH WIND       PRES   REMARKS
DEFIANCE       SUNNY     51  27  39 W15G21    30.02S
FINDLAY        MOSUNNY   50  28  42 W18       30.01S
TOLEDO EXPRESS SUNNY     50  24  36 W17G26    29.97F
TOLEDO EXEC    SUNNY     52  26  36 W23G32    29.98F
LIMA           MOSUNNY   49  32  52 W18G33    30.03S
$$

OHZ009>014-019>023-028>033-038-089-301700-
   NORTHEAST OHIO

CITY           SKY/WX    TMP DP  RH WIND       PRES   REMARKS
CLE-HOPKINS    MOSUNNY   46  28  49 W16G26    30.00R
CLE-LAKEFRONT  MOSUNNY   42  32  67 W15       29.97R
CUY CO. ARPT   MOSUNNY   46  32  57 W17G29    29.96R
LORAIN-ELYRIA  SUNNY     46  30  53 NW16G29   29.98S
ASHTABULA      MOSUNNY   44  30  57 W22G31    29.92R
AKRON-CANTON   PTSUNNY   45  29  53 W15G29    29.97R
WOOSTER        NOT AVBL
MANSFIELD      PTSUNNY   45  29  53 W13G24    30.00R
YOUNGSTOWN     CLOUDY    42  28  57 W15G26    29.93R
$$

OHZ042-051>053-060>062-070>072-077>081-301700-
  SOUTHWEST OHIO

CITY           SKY/WX    TMP DP  RH WIND       PRES   REMARKS
CINC-COVINGTON MOSUNNY   53  33  46 NW17G23   30.12R
CINC-LUNKEN    MOSUNNY   53  35  50 NW12G21   30.13R
HAMILTON       SUNNY     54  34  46 W13G21    30.12R
DAYTON         NOT AVBL
WRIGHT-PAT AFB NOT AVBL
DAYTON GENERAL MOSUNNY   50  34  54 W8        30.08R
WILMINGTON     PTSUNNY   49  33  54 W13       30.09R
$$

OHZ036-037-039>041-045>050-054>059-063>069-073>076-082>088-301700-
  CENTRAL AND SOUTHEAST OHIO

CITY           SKY/WX    TMP DP  RH WIND       PRES   REMARKS
COLUMBUS       MOSUNNY   50  29  44 W20G26    30.06R
OSU AIRPORT    MOSUNNY   49  28  44 W21       30.05R
BOLTON FIELD   PTSUNNY   48  30  49 NW13G26   30.07R
RICKENBACK AFB NOT AVBL
NEWARK         MOSUNNY   50  29  44 NW16G28   30.04R
MARION         MOSUNNY   48  28  46 NW13G24   30.03S
LANCASTER      MOSUNNY   50  30  46 NW18G24   30.07R
ZANESVILLE     MOSUNNY   49  29  46 W16       30.03R
NEW PHILLY     CLOUDY    48  29  47 W14G26    30.01R
$$



USA.gov is the U.S. government's official web portal to all federal, state and local government web resources and services.